Location: Peterborough
(44.3091°N, 78.3197°W)
Time: 06:26:51
(UTC-04:00)

Explorer 7 - Visible Passes

Search period start: 22 March 2023 00:00
Search period end: 01 April 2023 00:00
Orbit: 478 x 657 km, 50.3° (Epoch: 21 March)

Date Brightness Start Highest point End Pass type
(mag) Time Alt. Az. Time Alt. Az. Time Alt. Az.
22 Mar 7.2 19:52:10 10° WSW 19:56:32 68° NNW 20:00:40 10° ENE visible
22 Mar 8.0 21:33:18 10° WNW 21:37:12 35° N 21:38:00 32° NNE visible
23 Mar 7.5 19:52:32 10° W 19:56:50 54° NNW 20:00:54 10° ENE visible
23 Mar 8.0 21:33:43 10° WNW 21:37:36 34° N 21:38:19 32° NNE visible
23 Mar 10.1 23:14:18 10° WNW 23:14:20 10° WNW 23:14:20 10° WNW visible
24 Mar 7.8 19:52:55 10° W 19:57:09 45° NNW 20:01:09 10° ENE visible
24 Mar 7.9 21:34:04 10° WNW 21:37:59 36° N 21:38:34 34° NNE visible
24 Mar 10.1 23:14:32 10° WNW 23:14:35 10° WNW 23:14:35 10° WNW visible
25 Mar 7.7 21:34:22 10° WNW 21:38:20 39° N 21:38:48 37° NNE visible
25 Mar 10.0 23:14:45 10° WNW 23:14:49 10° WNW 23:14:49 10° WNW visible
26 Mar 7.4 21:34:36 10° WNW 21:38:40 44° NNE 21:39:01 43° NNE visible
26 Mar 10.0 23:15:00 10° WNW 23:15:02 10° WNW 23:15:02 10° WNW visible
27 Mar 7.1 21:34:49 10° WNW 21:38:57 53° NNE 21:39:12 52° NE visible
28 Mar 6.8 21:34:59 10° WNW 21:39:12 68° NNE 21:39:24 66° NE visible
29 Mar 6.6 21:35:09 10° WNW 21:39:23 89° NE 21:39:36 80° ESE visible
30 Mar 6.8 21:35:19 10° WNW 21:39:31 67° SSW 21:39:50 63° S visible
31 Mar 7.3 21:35:31 10° WNW 21:39:34 46° SW 21:40:05 44° SSW visible
